Greenland, New Hampshire, United States (03840)
Lat: 43.04N, Lon: 70.83W
Wx Zone: NHZ014
Local Info
Past Weather Observations for Monday, August 3, 2015

NOTE: This archive is for the closest National Weather Service station to Greenland. Information may differ from the station used for current weather conditions.

Click here for Long-term Archive

Time Weather Temperature Dewpoint Humidity Pressure Winds Precip Visibility
23:58
Clear
70°F / 21°C 59°F / 15°C 69% 29.83 in
(1010 mb)
S 4.6 mph
(S 7 kph)
- 10SM
22:58
Clear
72°F / 22°C 57°F / 14°C 61% 29.83 in
(1010 mb)
S 2.3 mph
(S 4 kph)
- 10SM
21:58
Clear
70°F / 21°C 57°F / 14°C 64% 29.83 in
(1010 mb)
SSE 3.5 mph
(SSE 6 kph)
- 10SM
20:58
Clear
72°F / 22°C 57°F / 14°C 61% 29.86 in
(1011 mb)
SSE 5.8 mph
(SSE 9 kph)
- 10SM
19:58
Clear
75°F / 24°C 57°F / 14°C 54% 29.86 in
(1011 mb)
SSW 1.2 mph
(SSW 2 kph)
- 10SM
17:58
Partly Cloudy
82°F / 28°C 55°F / 13°C 40% 29.83 in
(1010 mb)
SW 6.9 mph
(SW 11 kph)
- 10SM
16:58
Partly Cloudy
84°F / 29°C 55°F / 13°C 37% 29.83 in
(1010 mb)
SSE 10.4 mph
(SSE 17 kph)
- 10SM
15:58
Partly Cloudy
86°F / 30°C 55°F / 13°C 35% 29.83 in
(1010 mb)
SW 10.4 mph
(SW 17 kph)
- 10SM
14:58
Partly Cloudy
86°F / 30°C 55°F / 13°C 35% 29.83 in
(1010 mb)
SW 8.1 mph
(SW 13 kph)
- 10SM
13:58
Partly Cloudy
86°F / 30°C 54°F / 12°C 33% 29.83 in
(1010 mb)
SSW 10.4 mph
(SSW 17 kph)
- 10SM
12:58
Partly Cloudy
84°F / 29°C 54°F / 12°C 35% 29.86 in
(1011 mb)
SW 9.2 mph
(SW 15 kph)
- 10SM
11:58
Partly Cloudy
84°F / 29°C 55°F / 13°C 37% 29.86 in
(1011 mb)
SSW 8.1 mph
(SSW 13 kph)
- 10SM
10:58
Partly Cloudy
82°F / 28°C 55°F / 13°C 40% 29.89 in
(1012 mb)
SSW 11.5 mph
(SSW 19 kph)
- 10SM
09:58
Partly Cloudy
79°F / 26°C 55°F / 13°C 45% 29.89 in
(1012 mb)
SSW 6.9 mph
(SSW 11 kph)
- 10SM
08:58
Partly Cloudy
77°F / 25°C 55°F / 13°C 47% 29.89 in
(1012 mb)
SSW 9.2 mph
(SSW 15 kph)
- 10SM
07:58
Partly Cloudy
73°F / 23°C 57°F / 14°C 57% 29.86 in
(1011 mb)
SSW 8.1 mph
(SSW 13 kph)
- 10SM
06:58
Clear
70°F / 21°C 55°F / 13°C 60% 29.86 in
(1011 mb)
W 3.5 mph
(W 6 kph)
- 10SM
05:58
Clear
66°F / 19°C 55°F / 13°C 68% 29.83 in
(1010 mb)
W 4.6 mph
(W 7 kph)
- 10SM
04:58
Partly Cloudy
63°F / 17°C 54°F / 12°C 73% 29.83 in
(1010 mb)
SSW 6.9 mph
(SSW 11 kph)
- 10SM
03:58
Partly Cloudy
64°F / 18°C 54°F / 12°C 68% 29.8 in
(1009 mb)
SSW 6.9 mph
(SSW 11 kph)
- 10SM
02:58
Clear
64°F / 18°C 54°F / 12°C 68% 29.8 in
(1009 mb)
SSW 6.9 mph
(SSW 11 kph)
- 10SM
01:58
Partly Cloudy
66°F / 19°C 55°F / 13°C 68% 29.8 in
(1009 mb)
SSW 8.1 mph
(SSW 13 kph)
- 10SM
00:58
Partly Cloudy
66°F / 19°C 55°F / 13°C 68% 29.77 in
(1008 mb)
SSW 6.9 mph
(SSW 11 kph)
- 10SM
Time Weather Temperature Dewpoint Humidity Pressure Winds Precip Visibility


Weather for websites

WeatherForYou.com, LLC is not responsible for any damages or problems caused by this service. Current weather conditions are obtained from the closest station including government and personal stations which may have varying degrees of accuracy. Weather forecasts are derived from the NOAA NDFD. Like all things, this site belongs to Jesus Christ... He just trusts us to maintain it. If you have any questions or comments email webmaster@weatherforyou.com

Copyright © 2015, WeatherForYou.com LLC. All rights reserved.